Location: General Nathan Twining Observatory
(34.5931°N, 106.8201°W)
Time: 17:18:39
(UTC-06:00)

Daily predictions for brighter satellites

Satellite Brightness Start Highest point End
(mag) Time Altitude Azimuth Time Altitude Azimuth Time Altitude Azimuth
NOSS 2-1 (D) 3.4 20:01:01 10° S 20:04:31 45° ESE 20:08:05 10° NE
COSMOS 2428 3.1 20:01:05 10° S 20:06:27 42° ESE 20:11:49 10° NE
FengYun 1-2 T 4.3 20:02:19 10° SSE 20:07:54 88° ENE 20:13:34 10° NNW
Cosmos 2333 4.4 20:04:18 10° S 20:09:41 47° ESE 20:15:04 10° NNE
Cosmos 2181 Rocket 4.4 20:04:02 10° N 20:10:29 76° W 20:16:53 10° S
Cosmos 1455 4.0 20:09:35 10° ESE 20:11:31 14° E 20:13:28 10° ENE
ATLAS 2AS CENTAUR R/B 4.4 20:06:09 10° N 20:11:57 22° NE 20:17:27 10° E
Cosmos 1844 Rocket 3.6 20:12:54 10° N 20:17:52 30° ENE 20:22:47 10° ESE
ERS-2 2.8 20:15:01 10° SE 20:18:21 34° ENE 20:21:43 10° N
Cosmos 2263 Rocket 3.2 20:14:24 10° NNW 20:19:52 49° WSW 20:25:17 10° S
Cosmos 1892 4.2 20:17:31 10° NNE 20:20:19 19° ENE 20:22:50 11° ESE
Cosmos 2237 Rocket 3.5 20:19:38 10° SE 20:23:12 17° E 20:26:47 10° ENE
Cosmos 2219 Rocket 2.6 20:18:38 10° S 20:23:53 40° ESE 20:29:08 10° NE
ATLAS CENTAUR R/B 2.2 20:22:55 10° SSE 20:25:44 21° ESE 20:28:36 10° ENE
Cosmos 2074 Rocket 4.2 20:21:00 10° S 20:27:17 83° W 20:33:37 10° N
USA 186 2.3 20:26:56 16° ESE 20:27:51 21° ENE 20:29:39 10° NNE
Cosmos 1610 Rocket 4.4 20:27:39 10° S 20:33:44 73° E 20:39:51 10° N
Cosmos 2278 Rocket 4.1 20:31:51 10° NNE 20:34:45 14° NE 20:37:23 11° E
NOSS 2-1 (E) 3.1 20:31:13 10° SSW 20:34:50 83° WNW 20:38:40 10° NNE
Resurs 1-3 4.3 20:31:17 11° SE 20:35:02 35° ENE 20:39:02 10° N
Cosmos 1666 Rocket 4.2 20:32:25 10° N 20:36:36 38° E 20:40:14 13° SE
YAOGAN 6 3.0 20:36:12 13° SE 20:39:10 43° ENE 20:42:36 10° N
OAO 2 Rocket 3.4 20:34:38 10° W 20:39:53 87° N 20:43:55 17° E
NOSS 3-3 (A) 3.8 20:40:31 10° SSW 20:46:23 73° ESE 20:52:47 10° NE
NOSS 3-3 (C) 3.8 20:40:38 10° SSW 20:46:30 73° ESE 20:52:53 10° NE
Cosmos 1340 2.7 20:44:16 10° S 20:48:03 81° W 20:51:51 10° N
Cosmos 494 Rocket 4.1 20:42:52 10° NNW 20:48:06 80° WSW 20:53:19 10° SSE
Meteor 2-21 Rocket 4.4 20:42:56 10° S 20:48:55 62° E 20:55:00 10° NNE
ATLAS 2A CENTAUR R/B 3.7 20:45:26 10° WSW 20:50:02 21° SSW 20:51:35 15° S
Cosmos 1151 Rocket 4.0 20:50:11 23° ESE 20:51:23 26° E 20:54:56 10° NNE
Sich 1 3.0 20:47:20 10° N 20:51:35 63° E 20:55:09 14° SSE
Cosmos 1809 Rocket 4.5 20:46:48 10° S 20:52:56 88° W 20:59:09 10° N
Cosmos 1939 Rocket 2.7 20:52:00 16° SSE 20:54:59 68° ENE 20:58:51 10° N
SJ-6B 3.9 20:51:43 10° S 20:55:38 47° W 20:59:31 10° NNW
In-Cosmos 22 Rocket 4.3 20:51:29 10° NNW 20:56:57 75° W 21:02:15 10° S
Cosmos 2251 Rocket 3.5 20:54:27 10° NNW 20:59:50 70° ENE 21:03:37 20° SSE
Nadezhda 3 Rocket 4.0 20:54:29 10° N 21:00:49 75° E 21:07:09 10° SSE
USA 267 3.8 20:55:18 10° ENE 21:01:01 32° SE 21:06:42 10° S
Envisat 3.8 20:58:37 10° S 21:03:32 51° W 21:08:28 10° NNW
Cosmos 1825 4.0 21:01:32 10° NNE 21:03:17 16° ENE 21:03:17 16° ENE
Cosmos 1633 Rocket 2.9 21:06:09 10° N 21:10:31 78° E 21:12:59 25° SSE
Cosmos 2098 Rocket 4.4 21:11:36 25° ENE 21:11:36 25° ENE 21:14:27 10° NE
Cosmos 2228 Rocket 3.2 21:09:26 30° SSE 21:11:15 49° E 21:15:29 10° NNE
SL-16 R/B 4.2 21:15:04 11° ENE 21:15:04 11° ENE 21:15:31 10° ENE
Meteor 2-14 Rocket 4.5 21:06:14 10° S 21:12:20 82° W 21:18:28 10° N
Meteor 2-3 Rocket 3.7 21:08:15 10° N 21:13:48 64° E 21:16:58 26° SSE
SL-8 R/B 3.5 21:10:41 10° SW 21:15:28 81° SE 21:19:40 13° NE
Cosmos 1515 Rocket 3.6 21:14:22 30° SSE 21:16:23 57° E 21:20:46 10° NNE
Meteor 2-16 Rocket 4.4 21:15:05 10° S 21:21:14 85° W 21:27:24 10° N
SL-24 R/B - RUBIN 2 3.4 21:17:47 10° NNW 21:22:08 86° WSW 21:23:29 44° SSE
ARGOS 3.7 21:26:04 35° E 21:26:48 37° ENE 21:31:40 10° N
Resurs 01 Rocket 2.5 21:30:07 19° SSW 21:33:05 48° W 21:37:23 10° NNW
GEOS 3 Rocket 3.6 21:28:17 10° NE 21:33:32 58° ESE 21:38:38 10° SSW
Cosmos 1328 Rocket 4.4 21:33:17 10° SSW 21:37:32 50° W 21:41:51 10° N
Cosmos 1980 3.7 21:33:04 10° SSW 21:38:45 85° WNW 21:44:28 10° NNE
Cosmos 2333 Rocket 3.3 21:39:53 10° SW 21:45:17 44° WNW 21:50:41 10° N
Spot 2 Rocket 4.1 21:43:54 26° SSW 21:46:35 52° W 21:51:34 10° NNW
Cosmos 1455 4.1 21:43:31 10° SW 21:46:50 29° WNW 21:50:13 10° NNW
Cosmos 1959 Rocket 4.3 21:44:38 32° S 21:47:45 82° E 21:53:53 10° N
Sakura Rocket 4.5 21:45:25 10° WSW 21:47:27 23° SW 21:47:27 23° SW
Cosmos 1727 Rocket 4.3 21:43:42 10° N 21:49:37 46° E 21:49:42 46° E
Cosmos 1470 Rocket 3.7 21:47:18 10° NNW 21:51:42 69° W 21:52:03 65° SW
Meteor 2-10 Rocket 3.6 21:52:18 63° ESE 21:52:31 64° E 21:58:15 10° NNE
Terra 4.2 22:00:47 11° NE 22:00:47 11° NE 22:01:12 10° NE
Cosmos 2218 Rocket 4.1 21:56:37 28° SSW 22:00:13 78° W 22:06:38 10° N
Cosmos 1408 3.9 21:57:18 10° NNW 21:59:42 38° NNW 21:59:42 38° NNW
Cosmos 1844 Rocket 4.1 21:56:42 10° NW 22:01:39 32° WSW 22:04:29 20° SSW
SL-08 R/B 4.4 21:59:55 51° S 22:01:41 85° E 22:08:06 10° N
ATLAS 2AS CENTAUR R/B 2.8 21:56:11 10° NNW 22:04:01 88° WSW 22:05:44 57° SSE
ATLAS CENTAUR R/B 3.7 22:01:43 10° WSW 22:04:33 21° NW 22:07:30 10° N
Cosmos 2237 Rocket 2.9 22:01:18 10° SW 22:06:44 52° WNW 22:12:14 10° N
Cosmos 2219 Rocket 4.4 22:03:22 10° WSW 22:07:55 24° WNW 22:12:29 10° N
SPOT 5 4.4 22:10:05 25° NNE 22:10:05 25° NNE 22:12:18 10° N
Cosmos 2366 rocket 4.2 22:11:54 36° SSW 22:14:29 66° W 22:20:43 10° N
MetOp-A 4.1 22:14:51 75° W 22:14:51 75° W 22:20:12 10° NNW
H-2A R/B 2.3 22:19:45 62° NNW 22:19:45 62° NNW 22:23:54 10° NNW
Cosmos 2278 Rocket 2.2 22:13:45 10° NNW 22:19:15 75° W 22:19:15 75° W
OAO 2 Rocket 4.5 22:19:36 10° W 22:22:52 36° WSW 22:22:52 36° WSW
ERS-1 Rocket 3.6 22:30:18 52° NNW 22:30:18 52° NNW 22:34:07 10° NNW
NOSS 3-4 (A) 4.2 22:27:19 10° NNW 22:34:10 50° NE 22:34:10 50° NE
NOSS 3-4 (C) 4.2 22:27:26 10° NNW 22:34:16 50° NE 22:34:16 50° NE
USA 267 3.6 22:37:45 10° NE 22:44:09 61° NW 22:50:33 10° WSW
ATLAS 2A CENTAUR R/B 4.1 22:30:18 10° WSW 22:42:27 40° SSW 22:42:27 40° SSW
SL-16 R/B 3.2 22:56:50 42° NNW 22:56:50 42° NNW 23:00:58 10° N
USA 234 4.5 23:15:12 32° NNE 23:15:12 32° NNE 23:20:41 10° NNW
Cosmos 2344 3.8 23:20:44 63° WNW 23:21:01 64° NW 23:29:05 10° NNE
Terra 4.5 23:39:41 16° NNW 23:39:41 16° NNW 23:40:42 10° NNW
Cosmos 2369 Rocket 4.3 23:35:02 10° N 23:37:01 20° N 23:37:01 20° N
